sat.trackr.live / text

‹ back to catalog

STARLINK-35830

NORAD 66284 · 2025-247V

PAYLOAD ACTIVE UNKNOWN

§ Identity

Operator
Country
US
Launch date
2025-10-31
Launch site
AFWTR
Launch vehicle
Mass (kg)
RCS (m²)

Purposes: comms

External: N2YO · Heavens-Above · Gunter

§ Orbital elements

Epoch: 2026-05-24T15:47:27.795840Z

Period
94.11 min
Inclination
53.1588°
Eccentricity
0.0001356
Mean motion
15.30205412 rev/d
Perigee alt
474.3 km
Apogee alt
476.1 km
Semi-major
6,853.3 km
B*
3.9552e-4
RAAN
198.6556°
Arg perigee
58.5662°
Mean anomaly
301.5471°
Rev number
3,266

§ Raw data

STARLINK-358301 66284U 25247V   26144.65796060  .00011375  00000+0  39552-3 0  99952 66284  53.1588 198.6556 0001356  58.5662 301.5471 15.30205412 32666

JSON: /api/v1/satellites/66284 · /tle

For live sub-satellite position, see the globe view (requires WebGL).

§ Visibility from observer

Set your observer location to see the next 7 days of passes ≥ 10°. The values pass through the URL so the page stays shareable.

No JS? Fill the form by hand. The geolocation button needs JavaScript.